EW8328 Weather Reports


time (UTC)temp
F
wind
direction
speed
knots
gust
knots
rain 1hr
in
rain 24hr
in
rain mn
in
humidity
%
barometer
mb
20260831130812 65 251 5.2 10.4 0.00 0.26 0.02 75 1009.6
20260831130311 65 263 3.5 7.0 0.00 0.26 0.02 76 1009.5
20260831125813 65 252 2.6 8.7 0.00 0.26 0.02 74 1009.5
20260831125312 66 243 5.2 10.4 0.00 0.26 0.02 75 1009.4
20260831124813 65 253 5.2 12.2 0.00 0.26 0.02 77 1009.3
20260831124312 66 248 7.0 11.3 0.00 0.26 0.02 74 1009.2
20260831123312 66 247 5.2 12.2 0.00 0.26 0.02 75 1009.0
20260831122312 66 248 5.2 10.4 0.00 0.26 0.02 75 1008.8
20260831121811 66 253 6.1 14.8 0.00 0.26 0.02 75 1008.8
20260831121313 66 249 5.2 10.4 0.00 0.26 0.02 76 1008.7
20260831120812 66 252 6.1 13.9 0.00 0.26 0.02 76 1008.6
20260831120312 65 239 4.3 11.3 0.00 0.26 0.02 78 1008.6
20260831115312 65 285 3.5 13.0 0.00 0.26 0.02 79 1008.4
20260831114812 65 247 5.2 10.4 0.00 0.26 0.02 77 1008.3
20260831114312 66 254 5.2 11.3 0.00 0.26 0.02 77 1008.2
20260831113813 67 241 5.2 10.4 0.00 0.26 0.02 77 1008.0
20260831113312 65 246 4.3 10.4 0.00 0.26 0.02 81 1007.9
20260831112812 64 241 5.2 10.4 0.00 0.26 0.02 82 1008.0
20260831112311 65 250 5.2 10.4 0.00 0.26 0.02 79 1007.9
20260831111812 66 259 4.3 10.4 0.00 0.26 0.02 77 1007.7
20260831110812 66 248 5.2 10.4 0.00 0.26 0.02 77 1007.5
20260831105812 65 251 1.7 6.1 0.00 0.26 0.02 83 1007.4
20260831105311 64 281 2.6 7.8 0.00 0.26 0.02 80 1007.4
20260831104813 64 273 1.7 5.2 0.00 0.26 0.02 83 1007.2
20260831104312 64 272 1.7 6.1 0.00 0.26 0.02 83 1007.2
20260831103812 64 240 1.7 4.3 0.00 0.26 0.02 84 1007.2
20260831103313 64 276 0.9 4.3 0.00 0.26 0.02 85 1007.1
20260831102812 63 322 0.9 2.6 0.00 0.26 0.02 85 1007.1
20260831102313 63 306 0.9 2.6 0.00 0.26 0.02 84 1007.1
20260831101812 63 283 1.7 6.1 0.00 0.26 0.02 83 1007.0
20260831101312 63 280 2.6 5.2 0.00 0.26 0.02 84 1007.0
20260831100812 63 248 2.6 7.0 0.00 0.26 0.02 84 1007.0
20260831095812 64 254 2.6 8.7 0.00 0.26 0.02 83 1006.9
20260831095312 64 298 1.7 10.4 0.00 0.26 0.02 84 1006.9
20260831094312 64 321 1.7 4.3 0.00 0.26 0.02 84 1006.7
20260831093812 64 279 0.9 2.6 0.00 0.26 0.02 85 1006.7
20260831093312 63 315 0.9 2.6 0.00 0.26 0.02 86 1006.6
20260831092812 63 262 2.6 6.1 0.00 0.26 0.02 86 1006.5
20260831092312 62 248 0.9 5.2 0.00 0.26 0.02 87 1006.4
20260831090812 61 256 1.7 6.1 0.00 0.26 0.02 88 1006.3
20260831090313 61 250 1.7 5.2 0.00 0.26 0.02 88 1006.2
20260831085813 61 269 2.6 7.0 0.00 0.26 0.02 87 1006.2
20260831085312 61 250 1.7 7.8 0.00 0.26 0.02 89 1006.1
20260831084812 61 297 0.9 4.3 0.00 0.26 0.02 90 1006.0
20260831084312 60 263 0.9 6.1 0.00 0.26 0.02 90 1006.0
20260831083812 60 263 1.7 5.2 0.00 0.26 0.02 91 1005.8
20260831083311 60 245 2.6 5.2 0.00 0.26 0.02 90 1005.8
20260831082812 60 254 3.5 6.1 0.00 0.26 0.02 91 1005.7
20260831082312 60 242 1.7 4.3 0.00 0.26 0.02 92 1005.7
20260831081311 59 252 2.6 6.1 0.00 0.26 0.02 92 1005.4
20260831080811 59 248 1.7 5.2 0.00 0.26 0.02 94 1005.3
20260831080311 59 255 2.6 6.1 0.00 0.26 0.02 93 1005.2
20260831075812 58 267 0.9 4.3 0.00 0.26 0.02 94 1005.2
20260831075312 58 254 0.9 4.3 0.00 0.26 0.02 95 1005.1
20260831074812 58 289 0.9 5.2 0.00 0.26 0.02 95 1005.1
20260831074312 58 300 0.9 5.2 0.00 0.26 0.02 95 1005.0
20260831073812 58 268 0.9 4.3 0.00 0.26 0.02 96 1004.9
20260831073312 58 258 1.7 5.2 0.00 0.26 0.02 95 1004.8
20260831072812 58 273 1.7 2.6 0.00 0.26 0.02 95 1004.8
20260831072312 58 246 0.9 2.6 0.00 0.26 0.02 96 1004.7
20260831071812 57 286 1.7 5.2 0.00 0.26 0.02 96 1004.7
20260831071311 57 256 1.7 4.3 0.00 0.26 0.02 96 1004.6
20260831070812 57 247 1.7 5.2 0.00 0.26 0.02 96 1004.5
20260831070311 57 325 1.7 2.6 0.00 0.26 0.02 96 1004.5
20260831065812 57 288 0.9 2.6 0.00 0.26 0.02 96 1004.4
20260831065311 57 300 0.9 2.6 0.00 0.26 0.02 96 1004.3
20260831064812 56 270 1.7 2.6 0.00 0.26 0.02 96 1004.3
20260831064312 56 282 0.9 2.6 0.00 0.26 0.02 96 1004.2
20260831063812 56 260 0.9 2.6 0.00 0.26 0.02 96 1004.2
20260831063313 56 302 1.7 7.0 0.00 0.26 0.02 96 1004.1
20260831062811 56 276 1.7 5.2 0.00 0.26 0.02 96 1003.9
20260831062312 56 256 2.6 6.1 0.00 0.26 0.02 96 1003.9
20260831061812 56 275 1.7 6.1 0.00 0.26 0.02 96 1003.8
20260831061312 56 258 1.7 4.3 0.00 0.26 0.02 96 1003.7
20260831060812 56 262 2.6 5.2 0.00 0.26 0.02 96 1003.6
20260831055813 56 252 0.9 2.6 0.00 0.26 0.02 96 1003.5
20260831055311 56 252 1.7 4.3 0.00 0.26 0.02 96 1003.4
20260831054812 56 246 1.7 4.3 0.00 0.26 0.02 96 1003.3
20260831054312 56 232 0.9 2.6 0.00 0.26 0.02 96 1003.2
20260831053312 56 225 0.9 2.6 0.00 0.26 0.02 96 1003.1
20260831051811 56 254 1.7 4.3 0.00 0.26 0.02 96 1002.9
20260831051311 56 257 0.9 2.6 0.00 0.26 0.02 96 1002.8
20260831050812 56 244 1.7 2.6 0.00 0.26 0.02 96 1002.6
20260831050311 56 256 1.7 4.3 0.00 0.26 0.02 96 1002.6
20260831045811 56 235 0.9 2.6 0.00 0.26 0.02 96 1002.5
20260831045312 56 236 1.7 4.3 0.00 0.26 0.02 96 1002.5
20260831044812 56 245 1.7 4.3 0.00 0.26 0.02 96 1002.4
20260831044312 56 250 0.9 5.2 0.00 0.28 0.02 96 1002.4
20260831043811 57 242 0.9 4.3 0.00 0.28 0.02 96 1002.3
20260831043311 57 270 0.9 5.2 0.00 0.32 0.02 96 1002.3
20260831042811 57 266 0.9 1.7 0.00 0.34 0.02 96 1002.2
20260831042312 57 277 0.9 2.6 0.00 0.37 0.02 96 1002.3
20260831041811 57 239 1.7 2.6 0.00 0.39 0.02 96 1002.3
20260831041311 57 249 1.7 2.6 0.00 0.39 0.02 96 1002.3
20260831040812 57 303 0.9 2.6 0.00 0.42 0.02 96 1002.3
20260831040312 57 232 0.9 2.6 0.00 0.43 0.02 96 1002.2
20260831035811 57 257 1.7 2.6 0.00 0.43 0.02 96 1002.2
20260831035311 57 249 0.9 2.6 0.00 0.43 0.02 96 1002.1
20260831034812 57 239 0.9 2.6 0.00 0.44 0.02 96 1002.1
20260831034311 57 81 0.9 2.6 0.00 0.44 0.02 96 1002.1
20260831033811 56 81 0.0 1.7 0.00 0.45 0.02 96 1002.0
20260831032812 57 81 0.9 0.9 0.00 0.46 0.02 96 1002.0
20260831032311 57 81 0.9 1.7 0.00 0.46 0.02 96 1001.9
20260831031811 57 81 0.9 1.7 0.00 0.46 0.02 96 1001.9
20260831031312 57 81 0.9 2.6 0.00 0.46 0.02 96 1001.9
20260831030811 57 81 0.0 1.7 0.00 0.46 0.02 96 1001.8
20260831030311 57 81 0.0 0.9 0.00 0.46 0.02 96 1001.7
20260831025811 57 81 0.0 0.0 0.00 0.46 0.02 96 1001.7
20260831025311 57 81 0.0 0.9 0.00 0.46 0.02 96 1001.7
20260831024812 57 81 0.9 0.9 0.00 0.46 0.02 96 1001.7
20260831024311 57 81 0.0 1.7 0.00 0.46 0.02 96 1001.6
20260831023812 57 81 0.0 0.9 0.00 0.46 0.02 96 1001.6
20260831022812 57 81 0.0 0.0 0.00 0.46 0.02 96 1001.5
20260831022311 57 81 0.0 0.0 0.00 0.46 0.02 96 1001.5
20260831021812 57 81 0.0 0.0 0.00 0.46 0.02 96 1001.5
20260831021311 57 81 0.0 0.0 0.00 0.46 0.02 96 1001.5
20260831020813 57 81 0.0 0.0 0.00 0.46 0.02 96 1001.4
20260831020311 57 81 0.0 0.0 0.00 0.46 0.02 96 1001.4
20260831015312 57 81 0.0 0.9 0.00 0.46 0.02 96 1001.3
20260831014811 57 81 0.9 0.9 0.00 0.46 0.02 96 1001.3
20260831014311 57 81 0.0 0.9 0.00 0.46 0.02 96 1001.3
20260831013811 57 81 0.0 0.0 0.00 0.46 0.02 96 1001.3
20260831013311 57 81 0.0 0.0 0.00 0.46 0.02 96 1001.2
20260831012812 57 81 0.0 0.9 0.00 0.46 0.02 96 1001.3
20260831012311 57 81 0.0 1.7 0.00 0.46 0.02 96 1001.3
20260831011811 57 81 0.0 0.9 0.00 0.46 0.02 96 1001.4
20260831011311 57 81 0.0 1.7 0.00 0.46 0.02 96 1001.4
20260831010812 57 81 0.9 1.7 0.01 0.46 0.02 96 1001.4
20260831010311 57 81 0.0 0.9 0.01 0.46 0.02 96 1001.4
20260831005811 57 81 0.0 0.0 0.01 0.46 0.02 96 1001.4
20260831005311 57 81 0.0 0.0 0.01 0.46 0.02 96 1001.4
20260831004811 57 81 0.0 1.7 0.01 0.46 0.02 96 1001.5
20260831004311 57 81 0.9 1.7 0.01 0.46 0.02 96 1001.5
20260831003811 57 81 0.0 0.0 0.01 0.46 0.02 96 1001.5
20260831003311 57 81 0.0 0.9 0.01 0.46 0.02 96 1001.5
20260831002813 57 81 0.9 0.9 0.01 0.46 0.02 96 1001.4
20260831002311 57 81 0.0 0.9 0.01 0.46 0.02 95 1001.3
20260831001811 57 81 0.0 0.0 0.01 0.46 0.02 96 1001.3
20260831001311 57 81 0.9 14.8 0.02 0.46 0.02 96 1001.3
20260831000311 57 81 0.0 0.9 0.01 0.45 0.01 95 1001.2
20260830235811 57 81 0.9 1.7 0.01 0.45 0.01 95 1001.2
20260830235311 57 81 0.0 0.9 0.01 0.45 0.01 95 1001.2
20260830234812 57 81 0.9 1.7 0.01 0.45 0.01 95 1001.3
20260830234312 57 81 0.9 1.7 0.01 0.45 0.01 95 1001.3
20260830233811 57 81 0.0 0.9 0.01 0.45 0.01 95 1001.4
20260830233311 57 81 0.9 1.7 0.01 0.45 0.01 95 1001.5
20260830232811 57 81 0.9 1.7 0.01 0.45 0.01 95 1001.5
20260830232311 57 81 0.9 1.7 0.01 0.46 0.01 95 1001.5
20260830231812 57 81 0.9 0.9 0.01 0.46 0.01 95 1001.5
20260830230900 57 81 0.9 1.7 0.00 0.45 0.00 95 1001.6
20260830230312 57 81 0.9 0.9 0.00 0.45 0.00 95 1001.7
20260830225813 57 81 0.0 0.9 0.00 0.45 0.45 95 1001.7
20260830225311 57 81 0.0 0.9 0.00 0.45 0.45 95 1001.8
20260830224811 57 81 0.9 1.7 0.00 0.45 0.45 95 1001.8
20260830224311 57 81 0.9 1.7 0.00 0.45 0.45 95 1001.9
20260830223811 57 81 0.9 2.6 0.00 0.45 0.45 95 1001.9
20260830223311 57 98 0.9 2.6 0.00 0.45 0.45 95 1002.1
20260830222811 57 98 0.9 2.6 0.00 0.45 0.45 95 1002.1
20260830222311 57 98 0.9 1.7 0.00 0.45 0.45 95 1002.1
20260830221811 57 98 0.0 0.9 0.00 0.45 0.45 95 1002.1
20260830221311 57 98 0.0 1.7 0.00 0.45 0.45 95 1002.1
20260830220812 57 98 0.9 1.7 0.00 0.45 0.45 94 1002.2
20260830220311 57 98 0.9 0.9 0.00 0.45 0.45 94 1002.2
20260830215811 57 98 0.9 1.7 0.00 0.45 0.45 94 1002.2
20260830214811 57 98 0.9 1.7 0.00 0.45 0.45 94 1002.2
20260830214311 57 98 0.0 1.7 0.00 0.45 0.45 94 1002.1
20260830213311 58 98 0.9 1.7 0.00 0.45 0.45 93 1002.0
20260830212811 58 98 0.9 1.7 0.00 0.45 0.45 93 1002.0
20260830212311 58 98 0.9 1.7 0.00 0.45 0.45 93 1002.0
20260830211811 59 98 0.0 0.9 0.00 0.45 0.45 93 1002.0
20260830211312 59 98 0.0 1.7 0.00 0.45 0.45 93 1002.1
20260830210811 59 98 0.0 2.6 0.00 0.45 0.45 93 1002.1
20260830205811 59 98 0.0 1.7 0.00 0.45 0.45 93 1002.3
20260830204811 59 118 0.9 2.6 0.00 0.45 0.45 93 1002.4
20260830203811 59 138 0.0 0.9 0.00 0.46 0.45 93 1002.4
20260830203311 59 138 0.0 2.6 0.00 0.46 0.45 93 1002.4
20260830201812 59 155 0.0 1.7 0.00 0.46 0.45 93 1002.4
20260830201311 59 155 0.9 0.9 0.00 0.46 0.45 93 1002.4
20260830200811 59 155 0.0 1.7 0.00 0.46 0.45 93 1002.4
20260830200311 59 155 0.9 1.7 0.00 0.46 0.45 93 1002.5
20260830195811 59 155 1.7 4.3 0.00 0.46 0.45 93 1002.4
20260830195312 59 93 0.9 2.6 0.00 0.46 0.45 94 1002.5
20260830194812 59 48 0.9 4.3 0.00 0.46 0.45 94 1002.4
20260830194310 59 178 0.9 2.6 0.00 0.46 0.45 94 1002.5
20260830193811 58 49 0.9 2.6 0.02 0.46 0.45 94 1002.4
20260830193310 58 250 0.9 1.7 0.04 0.46 0.45 94 1002.4
20260830192811 58 250 0.9 1.7 0.06 0.46 0.45 94 1002.4
20260830192311 58 250 0.9 1.7 0.06 0.46 0.45 93 1002.4
20260830191811 58 250 0.0 1.7 0.08 0.46 0.45 93 1002.4
20260830191310 58 250 0.0 1.7 0.09 0.46 0.45 93 1002.3
20260830190811 58 250 0.0 0.9 0.12 0.46 0.45 93 1002.1
20260830190311 58 250 0.0 1.7 0.18 0.46 0.45 93 1002.1
20260830185811 58 250 0.0 1.7 0.19 0.46 0.45 92 1002.0
20260830185311 58 250 0.9 1.7 0.19 0.46 0.45 92 1002.1
20260830184811 59 250 0.9 1.7 0.19 0.46 0.45 92 1002.2
20260830184311 59 250 0.0 2.6 0.20 0.46 0.45 92 1002.4
20260830183813 59 154 0.9 2.6 0.20 0.44 0.43 91 1002.5
20260830183311 59 153 0.9 2.6 0.18 0.42 0.41 91 1002.7
20260830181811 59 174 4.3 7.0 0.14 0.38 0.37 88 1002.7
20260830181311 60 155 4.3 10.4 0.13 0.37 0.36 87 1002.8
20260830175310 64 119 0.9 2.6 0.03 0.27 0.26 88 1002.4
20260830174812 64 119 0.9 2.6 0.03 0.27 0.26 87 1002.4
20260830174311 64 134 0.9 2.6 0.02 0.26 0.25 86 1002.7
20260830173811 64 168 0.0 1.7 0.00 0.24 0.23 86 1002.7
20260830173311 64 168 0.0 0.9 0.00 0.24 0.23 86 1002.6
20260830172811 64 168 0.0 0.9 0.00 0.24 0.23 86 1002.5
20260830172311 64 168 0.0 0.9 0.00 0.24 0.23 86 1002.7
20260830170811 64 168 0.9 2.6 0.00 0.24 0.23 84 1002.9
20260830170311 64 168 0.0 2.6 0.00 0.24 0.23 83 1002.9
20260830165311 64 117 0.9 4.3 0.00 0.24 0.23 84 1002.8
20260830164811 64 108 1.7 4.3 0.00 0.24 0.23 84 1002.8
20260830164311 64 128 0.9 2.6 0.00 0.24 0.23 84 1002.8
20260830163811 64 128 0.9 2.6 0.00 0.24 0.23 85 1002.8
20260830163311 64 128 0.9 2.6 0.00 0.24 0.23 84 1002.8
20260830162811 64 167 0.0 1.7 0.00 0.24 0.23 85 1002.9
20260830161811 64 167 1.7 4.3 0.00 0.24 0.23 86 1003.0
20260830161311 63 167 1.7 2.6 0.00 0.24 0.23 86 1003.0
20260830160811 63 167 1.7 2.6 0.00 0.24 0.23 85 1003.0
20260830160311 63 167 0.0 2.6 0.00 0.24 0.23 86 1003.0
20260830155811 63 167 0.9 2.6 0.00 0.24 0.23 86 1003.0
20260830154811 63 168 1.7 2.6 0.00 0.24 0.23 85 1003.2
20260830154311 63 103 0.9 2.6 0.00 0.24 0.23 87 1003.3
20260830153812 63 103 0.9 2.6 0.01 0.24 0.23 88 1003.4
20260830152811 62 103 1.7 4.3 0.02 0.24 0.23 89 1003.4
20260830151311 62 132 0.9 2.6 0.02 0.24 0.23 89 1003.6
20260830150811 62 175 1.7 2.6 0.02 0.24 0.23 90 1003.6
20260830145811 61 175 1.7 2.6 0.02 0.24 0.23 89 1003.6
20260830145311 61 135 1.7 5.2 0.02 0.24 0.23 89 1003.7
20260830144810 62 164 2.6 5.2 0.02 0.24 0.23 88 1003.9
20260830143311 63 203 3.5 7.8 0.01 0.22 0.21 86 1004.3
20260830142811 63 218 6.1 10.4 0.00 0.21 0.20 84 1004.3
20260830141812 63 170 5.2 7.8 0.00 0.21 0.20 83 1004.1
20260830141310 63 201 5.2 10.4 0.00 0.21 0.20 84 1004.2
20260830140810 63 204 4.3 7.0 0.00 0.21 0.20 84 1004.2
20260830140311 64 210 6.1 10.4 0.00 0.21 0.20 82 1004.3
20260830135811 65 214 5.2 10.4 0.00 0.21 0.20 79 1004.3
20260830135312 66 213 7.0 12.2 0.00 0.21 0.20 76 1004.3
20260830134811 66 176 7.0 11.3 0.00 0.21 0.20 73 1004.2
20260830134310 67 174 6.1 10.4 0.00 0.21 0.20 71 1004.1
20260830133811 67 163 4.3 8.7 0.00 0.21 0.20 71 1004.1
20260830133310 67 140 5.2 8.7 0.00 0.21 0.20 69 1004.0
20260830132811 68 189 5.2 8.7 0.00 0.21 0.20 69 1004.1
20260830132310 68 148 3.5 7.8 0.00 0.21 0.20 69 1004.0
20260830131811 68 156 4.3 8.7 0.00 0.21 0.20 69 1004.2
20260830131311 68 179 3.5 7.8 0.00 0.21 0.20 68 1004.3